| time (UTC) | temp C | wind direction | speed KPH | gust KPH | rain 1hr cm | rain 24hr cm | rain mn cm | humidity % | barometer mb |
| 20260507113043 | 4 | 262 | 8.0 | 16.1 | 0.00 | 0.00 | 0.00 | 88 | 1013.1 |
| 20260507111542 | 5 | 210 | 6.4 | 16.1 | 0.00 | 0.00 | 0.00 | 87 | 1013.0 |
| 20260507110048 | 5 | 267 | 6.4 | 22.5 | 0.00 | 0.00 | 0.00 | 88 | 1013.1 |
| 20260507104540 | 5 | 278 | 4.8 | 17.7 | 0.00 | 0.00 | 0.00 | 88 | 1013.4 |
| 20260507103050 | 5 | 271 | 6.4 | 16.1 | 0.00 | 0.00 | 0.00 | 88 | 1013.5 |
| 20260507101547 | 5 | 254 | 6.4 | 17.7 | 0.00 | 0.00 | 0.00 | 88 | 1013.5 |
| 20260507100045 | 5 | 227 | 4.8 | 16.1 | 0.00 | 0.00 | 0.00 | 87 | 1013.5 |
| 20260507094539 | 5 | 285 | 8.0 | 20.9 | 0.00 | 0.00 | 0.00 | 87 | 1013.6 |
| 20260507093040 | 5 | 267 | 6.4 | 16.1 | 0.00 | 0.00 | 0.00 | 87 | 1013.7 |
| 20260507091604 | 6 | 289 | 6.4 | 19.3 | 0.00 | 0.00 | 0.00 | 87 | 1013.8 |
| 20260507090046 | 6 | 250 | 6.4 | 14.5 | 0.00 | 0.00 | 0.00 | 86 | 1014.1 |
| 20260507084542 | 6 | 352 | 9.7 | 17.7 | 0.00 | 0.00 | 0.00 | 87 | 1014.1 |
| 20260507083041 | 6 | 299 | 11.3 | 19.3 | 0.00 | 0.00 | 0.00 | 87 | 1014.3 |
| 20260507081538 | 6 | 309 | 6.4 | 17.7 | 0.00 | 0.00 | 0.00 | 87 | 1014.5 |
| 20260507080048 | 6 | 281 | 6.4 | 14.5 | 0.00 | 0.00 | 0.00 | 86 | 1014.6 |
| 20260507074546 | 6 | 284 | 6.4 | 19.3 | 0.00 | 0.00 | 0.00 | 86 | 1014.9 |
| 20260507073043 | 6 | 286 | 11.3 | 17.7 | 0.00 | 0.00 | 0.00 | 85 | 1015.0 |
| 20260507071543 | 6 | 261 | 11.3 | 20.9 | 0.00 | 0.00 | 0.00 | 85 | 1015.2 |
| 20260507070053 | 6 | 284 | 8.0 | 14.5 | 0.00 | 0.00 | 0.00 | 85 | 1015.3 |
| 20260507064541 | 6 | 266 | 3.2 | 11.3 | 0.00 | 0.00 | 0.00 | 85 | 1015.4 |
| 20260507063040 | 6 | 261 | 3.2 | 12.9 | 0.00 | 0.00 | 0.00 | 84 | 1015.6 |
| 20260507061545 | 6 | 265 | 3.2 | 16.1 | 0.00 | 0.00 | 0.00 | 83 | 1015.8 |
| 20260507060054 | 6 | 258 | 3.2 | 12.9 | 0.00 | 0.00 | 0.00 | 83 | 1015.9 |
| 20260507054547 | 6 | 282 | 3.2 | 11.3 | 0.00 | 0.00 | 0.00 | 82 | 1016.2 |
| 20260507053048 | 6 | 291 | 3.2 | 11.3 | 0.00 | 0.00 | 0.00 | 81 | 1016.1 |
| 20260507051542 | 7 | 271 | 1.6 | 11.3 | 0.00 | 0.00 | 0.00 | 80 | 1016.2 |
| 20260507050050 | 7 | 273 | 4.8 | 12.9 | 0.00 | 0.00 | 0.00 | 80 | 1016.1 |
| 20260507044547 | 7 | 257 | 4.8 | 11.3 | 0.00 | 0.00 | 0.00 | 79 | 1016.4 |
| 20260507043042 | 7 | 266 | 3.2 | 12.9 | 0.00 | 0.00 | 0.00 | 78 | 1016.5 |
| 20260507041542 | 7 | 265 | 3.2 | 11.3 | 0.00 | 0.00 | 0.00 | 77 | 1016.7 |
| 20260507040042 | 7 | 279 | 1.6 | 6.4 | 0.00 | 0.00 | 0.00 | 74 | 1016.6 |
| 20260507034552 | 8 | 286 | 1.6 | 11.3 | 0.00 | 0.00 | 0.00 | 72 | 1016.8 |
| 20260507033047 | 8 | 286 | 3.2 | 12.9 | 0.00 | 0.00 | 0.00 | 71 | 1016.8 |
| 20260507031540 | 8 | 235 | 1.6 | 6.4 | 0.00 | 0.00 | 0.00 | 68 | 1016.8 |
| 20260507030042 | 8 | 257 | 3.2 | 11.3 | 0.00 | 0.00 | 0.00 | 64 | 1016.7 |
| 20260507024555 | 8 | 269 | 4.8 | 9.7 | 0.00 | 0.00 | 0.00 | 63 | 1016.6 |
| 20260507023042 | 10 | 360 | 4.8 | 12.9 | 0.00 | 0.00 | 0.00 | 61 | 1016.5 |
| 20260507021546 | 10 | 360 | 3.2 | 12.9 | 0.00 | 0.00 | 0.00 | 60 | 1016.4 |
| 20260507020048 | 11 | 360 | 8.0 | 14.5 | 0.00 | 0.00 | 0.00 | 56 | 1016.1 |
| 20260507014549 | 11 | 360 | 9.7 | 20.9 | 0.00 | 0.00 | 0.00 | 54 | 1016.1 |
| 20260507013045 | 12 | 360 | 4.8 | 12.9 | 0.00 | 0.00 | 0.00 | 52 | 1015.9 |
| 20260507011544 | 12 | 360 | 8.0 | 17.7 | 0.00 | 0.00 | 0.00 | 49 | 1015.9 |
| 20260507010055 | 13 | 360 | 3.2 | 17.7 | 0.00 | 0.00 | 0.00 | 47 | 1015.9 |
| 20260507004540 | 13 | 360 | 6.4 | 16.1 | 0.00 | 0.00 | 0.00 | 45 | 1016.0 |
| 20260507003050 | 13 | 360 | 11.3 | 22.5 | 0.00 | 0.00 | 0.00 | 44 | 1016.0 |
| 20260507001557 | 14 | 360 | 16.1 | 27.4 | 0.00 | 0.00 | 0.00 | 39 | 1015.9 |
| 20260507000043 | 14 | 360 | 11.3 | 27.4 | 0.00 | 0.00 | 0.00 | 38 | 1016.1 |
| 20260506234549 | 15 | 360 | 9.7 | 20.9 | 0.00 | 0.00 | 0.00 | 36 | 1016.1 |
| 20260506233058 | 14 | 360 | 4.8 | 17.7 | 0.00 | 0.00 | 0.00 | 39 | 1016.2 |
| 20260506231549 | 15 | 360 | 12.9 | 27.4 | 0.00 | 0.00 | 0.00 | 35 | 1016.2 |
| 20260506230052 | 15 | 305 | 19.3 | 33.8 | 0.00 | 0.00 | 0.00 | 34 | 1016.3 |
| 20260506224542 | 15 | 300 | 4.8 | 11.3 | 0.00 | 0.00 | 0.00 | 33 | 1016.4 |
| 20260506223057 | 15 | 360 | 4.8 | 16.1 | 0.00 | 0.00 | 0.00 | 34 | 1016.5 |
| 20260506221549 | 14 | 360 | 11.3 | 17.7 | 0.00 | 0.00 | 0.00 | 36 | 1016.6 |
| 20260506220047 | 14 | 360 | 4.8 | 16.1 | 0.00 | 0.00 | 0.00 | 35 | 1016.6 |
| 20260506214543 | 14 | 360 | 16.1 | 25.7 | 0.00 | 0.00 | 0.00 | 35 | 1017.0 |
| 20260506213054 | 13 | 360 | 3.2 | 19.3 | 0.00 | 0.00 | 0.00 | 36 | 1016.9 |
| 20260506211548 | 14 | 349 | 4.8 | 20.9 | 0.00 | 0.00 | 0.00 | 35 | 1017.1 |
| 20260506210042 | 14 | 360 | 9.7 | 19.3 | 0.00 | 0.00 | 0.00 | 34 | 1017.4 |
| 20260506204546 | 15 | 360 | 6.4 | 14.5 | 0.00 | 0.00 | 0.00 | 35 | 1017.6 |
| 20260506203047 | 13 | 286 | 11.3 | 24.1 | 0.00 | 0.00 | 0.00 | 35 | 1017.7 |
| 20260506201539 | 14 | 342 | 6.4 | 29.0 | 0.00 | 0.00 | 0.00 | 35 | 1017.9 |
| 20260506200041 | 15 | 305 | 8.0 | 16.1 | 0.00 | 0.00 | 0.00 | 36 | 1017.9 |
| 20260506194540 | 13 | 360 | 9.7 | 32.2 | 0.00 | 0.00 | 0.00 | 36 | 1018.2 |
| 20260506193038 | 13 | 360 | 9.7 | 20.9 | 0.00 | 0.00 | 0.00 | 36 | 1018.2 |
| 20260506191545 | 13 | 294 | 16.1 | 32.2 | 0.00 | 0.00 | 0.00 | 37 | 1018.3 |
| 20260506190042 | 13 | 360 | 12.9 | 20.9 | 0.00 | 0.00 | 0.00 | 38 | 1018.5 |
| 20260506184549 | 13 | 360 | 11.3 | 22.5 | 0.00 | 0.00 | 0.00 | 36 | 1018.6 |
| 20260506183049 | 12 | 360 | 11.3 | 30.6 | 0.00 | 0.00 | 0.00 | 38 | 1018.7 |
| 20260506181549 | 13 | 311 | 8.0 | 19.3 | 0.00 | 0.00 | 0.00 | 38 | 1018.9 |
| 20260506180048 | 12 | 360 | 8.0 | 24.1 | 0.00 | 0.00 | 0.00 | 39 | 1019.1 |
| 20260506174556 | 12 | 360 | 4.8 | 20.9 | 0.00 | 0.00 | 0.00 | 39 | 1019.0 |
| 20260506173042 | 12 | 360 | 0.0 | 12.9 | 0.00 | 0.00 | 0.00 | 37 | 1019.2 |
| 20260506171549 | 11 | 360 | 6.4 | 17.7 | 0.00 | 0.00 | 0.00 | 39 | 1019.2 |
| 20260506170050 | 12 | 360 | 4.8 | 16.1 | 0.00 | 0.00 | 0.00 | 40 | 1019.3 |
| 20260506164541 | 11 | 304 | 3.2 | 16.1 | 0.00 | 0.00 | 0.00 | 39 | 1019.5 |
| 20260506163053 | 11 | 319 | 8.0 | 17.7 | 0.00 | 0.00 | 0.00 | 39 | 1019.5 |
| 20260506161550 | 11 | 213 | 0.0 | 19.3 | 0.00 | 0.00 | 0.00 | 39 | 1019.5 |
| 20260506160051 | 11 | 306 | 3.2 | 14.5 | 0.00 | 0.00 | 0.00 | 40 | 1019.5 |
| 20260506154551 | 11 | 306 | 3.2 | 12.9 | 0.00 | 0.00 | 0.00 | 42 | 1019.4 |
| 20260506153045 | 11 | 360 | 1.6 | 9.7 | 0.00 | 0.00 | 0.00 | 42 | 1019.6 |
| 20260506151551 | 10 | 0 | 1.6 | 8.0 | 0.00 | 0.00 | 0.00 | 42 | 1019.5 |
| 20260506150048 | 10 | 355 | 0.0 | 6.4 | 0.00 | 0.00 | 0.00 | 48 | 1019.3 |
| 20260506144558 | 10 | 180 | 0.0 | 4.8 | 0.00 | 0.00 | 0.00 | 50 | 1019.1 |
| 20260506143052 | 9 | 0 | 0.0 | 4.8 | 0.00 | 0.00 | 0.00 | 52 | 1019.2 |
| 20260506141542 | 8 | 0 | 0.0 | 3.2 | 0.00 | 0.00 | 0.00 | 55 | 1019.2 |
| 20260506140057 | 8 | 0 | 0.0 | 3.2 | 0.00 | 0.00 | 0.00 | 57 | 1019.2 |
| 20260506134541 | 7 | 0 | 0.0 | 3.2 | 0.00 | 0.00 | 0.00 | 59 | 1019.1 |
| 20260506133101 | 7 | 0 | 0.0 | 3.2 | 0.00 | 0.00 | 0.00 | 62 | 1018.9 |
| 20260506131546 | 6 | 0 | 0.0 | 3.2 | 0.00 | 0.00 | 0.00 | 64 | 1018.7 |
| 20260506130112 | 6 | 47 | 1.6 | 6.4 | 0.00 | 0.00 | 0.00 | 66 | 1018.5 |
| 20260506124541 | 5 | 58 | 3.2 | 8.0 | 0.00 | 0.00 | 0.00 | 67 | 1018.4 |
| 20260506123046 | 5 | 36 | 3.2 | 8.0 | 0.00 | 0.00 | 0.00 | 67 | 1018.2 |
| 20260506121545 | 5 | 42 | 4.8 | 9.7 | 0.00 | 0.00 | 0.00 | 68 | 1018.0 |
| 20260506120050 | 5 | 44 | 4.8 | 8.0 | 0.00 | 0.00 | 0.00 | 67 | 1017.8 |
| 20260506114543 | 5 | 40 | 4.8 | 9.7 | 0.00 | 0.00 | 0.00 | 67 | 1017.4 |